Location: Atlantic Beach
(40.5890°N, 73.7290°W)
Time: 06:29:03
(UTC+00:00)

N. Korean satellite - Pass Details

Date: 29 January 2021
Orbit: 451 x 502 km, 97.2° (Epoch: 06 March)

Event Time Altitude Azimuth Distance (km) Brightness Sun altitude
Rises 10:47:52 0° 3° (N) 2,490 10.1 -15.2°
Reaches altitude 10° 10:50:01 10° 355° (N) 1,605 9.0 -14.8°
Maximum altitude 10:53:12 37° 287° (WNW) 720 6.9 -14.2°
Drops below altitude 10° 10:56:22 10° 218° (SW) 1,581 8.9 -13.6°
Sets 10:58:27 0° 210° (SSW) 2,446 10.0 -13.3°
